Regional Weather Roundup
Issued by NWS State College, PA

Home | Current Version | Previous Version | Graphics & Text | Print | Product List | Glossary Off
Versions: 1 2 3 4 5 6 7 8 9 10 11 12 13 14 15 16 17 18 19 20 21 22 23 24 25 26 27 28 29 30 31 32 33 34 35 36 37 38 39 40 41 42 43 44 45 46 47 48 49 50

000
ASUS41 KCTP 221603
RWRCTP

REGIONAL WEATHER ROUNDUP
NATIONAL WEATHER SERVICE STATE COLLEGE PA
1200 PM EDT SAT APR 22 2017

Note: "fair" indicates few or no clouds below 12,000 feet with no
significant weather and/or obstructions to visibility.

* = STATION THAT DOES NOT REPORT PRECIPITATION /E.G. RAIN...SNOW...ETC/
    THUNDER OR FOG.

PAZ002>004-007>009-013>016-020>023-029>032-221700-
WESTERN PENNSYLVANIA

CITY           SKY/WX    TMP DP  RH WIND       PRES   REMARKS
ERIE           CLOUDY    46  36  68 N10       30.09F
MEADVILLE      CLOUDY    46  36  68 N9        30.04F
FRANKLIN*      CLOUDY    45  32  61 N5        30.05S
NEW CASTLE     CLOUDY    46  37  71 NE10      30.06F
BEAVER COUNTY  CLOUDY    45  36  70 N9        30.05R
BUTLER*        PTSUNNY   48  36  61 NW9       30.05S
PITTSBURGH INT CLOUDY    48  36  63 N10       30.04R
PITTSBURGH     CLOUDY    50  36  58 N8        30.02S
INDIANA*       CLOUDY    48  37  66 VRB7      30.04R
LATROBE        PTSUNNY   48  37  66 NW9       30.04R
WASHINGTON CO* CLOUDY    48  37  66 N8        30.04F
$$

PAZ004>006-010>012-017>019-024>028-033>037-041-042-045-046-049>053-221700-
CENTRAL PENNSYLVANIA

CITY           SKY/WX    TMP DP  RH WIND       PRES   REMARKS
BRADFORD       CLOUDY    41  34  76 NW9       30.01S
DUBOIS         CLOUDY    46  34  62 N9        29.99F
CLEARFIELD     CLOUDY    50  37  61 N12       29.99F
JOHNSTOWN      CLOUDY    43  38  82 NW6       29.98R
ALTOONA        CLOUDY    48  41  76 N9        29.99R
STATE COLLEGE  CLOUDY    48  39  71 NE7       29.98F
WILLIAMSPORT   CLOUDY    53  40  61 N6        29.97F
SELINSGROVE    LGT RAIN  53  44  71 N10       29.98F
FT INDIANTOWN  DRIZZLE   55  43  65 NW3       29.95S
CAPITAL CITY   LGT RAIN  56  42  59 NW6       29.96S
HARRISBURG     LGT RAIN  56  44  64 N9        29.95S
YORK           LGT RAIN  55  48  77 N5        29.96S
$$

PAZ038>040-043-044-047-048-054-055-060>062-067>071-221700-
EASTERN PENNSYLVANIA

CITY           SKY/WX    TMP DP  RH WIND       PRES   REMARKS
SCRANTON       LGT RAIN  51  43  74 NW12      29.96F
MOUNT POCONO   LGT RAIN  45  41  86 N10       29.93F
ALLENTOWN      CLOUDY    56  44  64 N5        29.94F
QUAKERTOWN*    CLOUDY    52  46  82 NE6       29.95F
READING        CLOUDY    54  48  80 NE5       29.95F
LANCASTER      CLOUDY    55  50  83 N3        29.96S
COATESVILLE    LGT RAIN  52  46  82 N6        29.96S
POTTSTOWN      LGT RAIN  52  46  80 N3        29.96S
BLUE BELL      CLOUDY    54  45  71 N6        29.96R
DOYLESTOWN     LGT RAIN  54  48  80 N6        29.94S
WILLOW GROVE   NOT AVBL
NORTH PHILA    LGT RAIN  58  49  72 N9        29.95S
PHILADELPHIA   LGT RAIN  57  46  66 N13       29.94S
$$




USA.gov is the U.S. government's official web portal to all federal, state and local government web resources and services.